TimeCST,TemperatureF,Dew PointF,Humidity,Sea Level PressureIn,VisibilityMPH,Wind Direction,Wind SpeedMPH,Gust SpeedMPH,PrecipitationIn,Events,Conditions,WindDirDegrees,DateUTC
12:52 AM,30.9,25.0,79,29.83,10.0,SE,4.6,-,N/A,,Scattered Clouds,130,2013-02-13 06:52:00
1:52 AM,28.0,23.0,81,29.81,10.0,Calm,Calm,-,N/A,,Clear,0,2013-02-13 07:52:00
2:52 AM,24.1,19.9,84,29.80,10.0,Calm,Calm,-,N/A,,Clear,0,2013-02-13 08:52:00
3:52 AM,24.1,19.9,84,29.77,10.0,Calm,Calm,-,N/A,,Clear,0,2013-02-13 09:52:00
4:52 AM,21.0,19.0,92,29.76,10.0,Calm,Calm,-,N/A,,Scattered Clouds,0,2013-02-13 10:52:00
5:52 AM,24.1,19.9,84,29.74,10.0,SE,5.8,-,N/A,,Clear,140,2013-02-13 11:52:00
6:52 AM,27.0,23.0,85,29.71,10.0,SSE,4.6,-,N/A,,Overcast,160,2013-02-13 12:52:00
7:52 AM,30.0,25.0,82,29.70,10.0,SSE,5.8,-,N/A,,Overcast,160,2013-02-13 13:52:00
8:52 AM,30.9,25.0,79,29.67,10.0,SE,8.1,-,N/A,,Overcast,140,2013-02-13 14:52:00
9:52 AM,32.0,27.0,82,29.65,10.0,ESE,4.6,-,N/A,,Overcast,120,2013-02-13 15:52:00
10:52 AM,37.9,28.9,70,29.63,10.0,Calm,Calm,-,N/A,,Overcast,0,2013-02-13 16:52:00
11:52 AM,42.1,30.0,62,29.61,10.0,NW,17.3,25.3,N/A,,Overcast,310,2013-02-13 17:52:00
12:52 PM,42.1,30.9,65,29.61,10.0,NW,25.3,31.1,N/A,,Overcast,310,2013-02-13 18:52:00
1:52 PM,42.1,32.0,67,29.61,10.0,NW,18.4,29.9,N/A,,Mostly Cloudy,320,2013-02-13 19:52:00
2:52 PM,44.1,32.0,63,29.62,10.0,NW,21.9,32.2,N/A,,Partly Cloudy,320,2013-02-13 20:52:00
3:52 PM,44.1,32.0,63,29.63,10.0,NNW,20.7,26.5,N/A,,Clear,330,2013-02-13 21:52:00
4:52 PM,42.1,30.9,65,29.66,10.0,NW,13.8,23.0,N/A,,Clear,310,2013-02-13 22:52:00
5:52 PM,39.9,30.0,68,29.69,10.0,NNW,16.1,-,N/A,,Clear,330,2013-02-13 23:52:00
6:52 PM,39.9,30.0,68,29.71,10.0,NW,25.3,32.2,N/A,,Overcast,320,2013-02-14 00:52:00
7:36 PM,35.6,28.4,75,29.70,10.0,North,17.3,26.5,N/A,,Overcast,360,2013-02-14 01:36:00
7:52 PM,34.0,28.9,82,29.77,10.0,North,18.4,-,N/A,,Overcast,360,2013-02-14 01:52:00
8:23 PM,33.8,28.4,81,29.73,10.0,North,13.8,-,N/A,,Overcast,350,2013-02-14 02:23:00
8:52 PM,34.0,28.9,82,29.79,10.0,North,13.8,-,N/A,,Overcast,350,2013-02-14 02:52:00
9:09 PM,33.8,28.4,81,29.73,10.0,North,12.7,-,N/A,,Overcast,350,2013-02-14 03:09:00
9:52 PM,33.1,28.0,82,29.81,10.0,NNW,11.5,-,N/A,,Overcast,330,2013-02-14 03:52:00
10:52 PM,33.1,28.0,82,29.82,10.0,NW,6.9,-,N/A,,Overcast,320,2013-02-14 04:52:00
11:48 PM,33.8,28.4,81,29.79,4.0,Calm,Calm,-,0.00,Snow,Light Snow,0,2013-02-14 05:48:00
11:52 PM,33.1,28.9,85,29.83,3.0,Calm,Calm,-,0.00,Snow,Light Snow,0,2013-02-14 05:52:00